This demonstration page uses our WeatherBlox Daily Observations layout. Learn more.

Left ArrowRight Arrow

40.92945, -100.16068

Hourly Observations for April 30, 2021

Temp ( °F °C ) Dew Point ( °F °C ) Humidity (%) Winds ( mph kmh ) Pressure ( in mb ) Visibility ( mi km ) Precip ( " mm )
12:15 am 00:15 Clear 51 10.8 36 2.4 56 56 S 7 11 30.23 1024 10 16 N/A
12:35 am 00:35 Clear 52 10.9 36 2.1 55 55 S 7 11 30.23 1024 10 16 N/A
12:55 am 00:55 Clear 50 10.2 35 1.9 57 57 S 7 11 30.23 1024 10 16 N/A
1:15 am 01:15 Clear 51 10.8 35 1.4 53 53 S 3 6 30.22 1023 10 16 N/A
1:35 am 01:35 Clear 55 12.5 33 0.7 45 45 S 6 9 30.20 1023 10 16 N/A
1:55 am 01:55 Clear 51 10.8 35 1.9 54 54 S 6 9 30.21 1023 10 16 N/A
2:15 am 02:15 Clear 54 12.3 34 1 46 46 SSW 8 13 30.19 1022 10 16 N/A
2:35 am 02:35 Clear 54 12.2 33 0.8 46 46 SSW 8 13 30.19 1022 10 16 N/A
2:55 am 02:55 Clear 53 11.8 33 0.8 47 47 SW 7 11 30.19 1023 10 16 N/A
3:15 am 03:15 Clear 52 11.3 33 0.8 49 49 SW 5 7 30.20 1023 10 16 N/A
3:35 am 03:35 Clear 52 10.9 34 1.1 51 51 N N/A 30.20 1023 10 16 N/A
3:55 am 03:55 Clear 53 11.7 33 0.6 47 47 N N/A 30.20 1023 10 16 N/A
4:15 am 04:15 Clear 53 11.5 33 0.6 47 47 WSW 7 11 30.20 1023 10 16 N/A
4:35 am 04:35 Clear 53 11.6 33 0.7 47 47 WSW 5 7 30.20 1023 10 16 N/A
4:55 am 04:55 Clear 53 11.7 33 0.6 47 47 WSW 5 7 30.20 1023 10 16 N/A
5:15 am 05:15 Clear 53 11.4 34 1.1 49 49 W 5 7 30.19 1022 10 16 N/A
5:35 am 05:35 Clear 51 10.5 35 1.6 54 54 W 5 7 30.20 1023 10 16 N/A
5:55 am 05:55 Clear 50 9.8 35 1.8 58 58 WNW 6 9 30.20 1023 10 16 N/A
6:15 am 06:15 Clear 47 8.5 37 2.6 67 67 WNW 5 7 30.22 1023 10 16 N/A
6:35 am 06:35 Clear 48 9 38 3.1 67 67 W 6 9 30.22 1023 10 16 N/A
6:55 am 06:55 Sunny 45 7.4 38 3.2 75 75 WNW 5 7 30.24 1024 10 16 N/A
7:15 am 07:15 Sunny 44 6.7 37 3 78 78 WNW 6 9 30.25 1024 10 16 N/A
7:35 am 07:35 Sunny 47 8.1 40 4.2 77 77 W 5 7 30.23 1024 10 16 N/A
7:55 am 07:55 Sunny 51 10.6 40 4.5 66 66 SW 6 9 30.21 1023 10 16 N/A
8:15 am 08:15 Sunny 54 12.4 41 4.8 60 60 SW 7 11 30.19 1022 10 16 N/A
8:35 am 08:35 Sunny 58 14.6 42 5.4 54 54 WSW 8 13 30.17 1022 10 16 N/A
8:55 am 08:55 Sunny 62 16.9 42 5.6 48 48 W 13 20 30.15 1021 10 16 N/A
9:15 am 09:15 Sunny 65 18.6 43 5.9 44 44 W 15 24 30.12 1020 10 16 N/A
9:35 am 09:35 Sunny 68 20.1 41 4.9 37 37 W 18 30 30.11 1020 10 16 N/A
9:55 am 09:55 Sunny 71 21.5 40 4.6 33 33 W 16 26 30.10 1019 10 16 N/A
10:15 am 10:15 Sunny 73 22.5 42 5.3 33 33 WNW 16 26 30.08 1019 10 16 N/A
10:35 am 10:35 Sunny 73 23 39 4.1 29 29 WNW 17 28 30.08 1018 10 16 N/A
10:55 am 10:55 Sunny 74 23.3 39 4.1 29 29 WNW 15 24 30.07 1018 10 16 N/A
11:15 am 11:15 Sunny 75 23.9 41 4.8 29 29 WNW 14 22 30.07 1018 10 16 N/A
11:35 am 11:35 Sunny 76 24.4 41 5.1 29 29 NW 14 22 30.05 1018 10 16 N/A
11:55 am 11:55 Sunny 77 24.9 40 4.4 27 27 W 12 19 30.05 1018 10 16 N/A
12:15 pm 12:15 Sunny 78 25.5 40 4.5 26 26 WNW 10 17 30.04 1017 10 16 N/A
12:35 pm 12:35 Sunny 78 25.8 40 4.7 26 26 W 6 9 30.03 1017 10 16 N/A
12:55 pm 12:55 Sunny 79 26.1 38 3.6 23 23 W 3 6 30.01 1016 10 16 N/A
1:15 pm 13:15 Sunny 81 27 40 4.5 24 24 S 3 6 29.99 1016 10 16 N/A
1:35 pm 13:35 Sunny 82 27.6 40 4.4 23 23 WNW 6 9 29.98 1015 10 16 N/A
1:55 pm 13:55 Sunny 82 27.7 37 3 20 20 WSW 10 17 29.97 1015 10 16 N/A
2:15 pm 14:15 Sunny 82 27.8 37 3 20 20 SSW 10 17 29.96 1014 10 16 N/A
2:35 pm 14:35 Sunny 83 28.2 38 3.2 20 20 SW 16 26 29.95 1014 10 16 N/A
2:55 pm 14:55 Sunny 83 28.4 38 3.2 20 20 SSW 14 22 29.94 1014 10 16 N/A
3:15 pm 15:15 Sunny 84 28.7 38 3.3 20 20 SSW 14 22 29.94 1014 10 16 N/A
3:35 pm 15:35 Sunny 84 28.7 38 3.5 20 20 SW 13 20 29.93 1014 10 16 N/A
3:55 pm 15:55 Sunny 84 28.9 38 3.5 20 20 SSW 14 22 29.92 1013 10 16 N/A
4:15 pm 16:15 Sunny 85 29.3 37 2.8 18 18 SSW 17 28 29.90 1013 10 16 N/A
4:35 pm 16:35 Sunny 85 29.2 38 3.1 19 19 SSW 13 20 29.90 1012 10 16 N/A
4:55 pm 16:55 Sunny 85 29.3 39 3.7 19 19 SSW 15 24 29.88 1012 10 16 N/A
5:15 pm 17:15 Sunny 85 29.4 38 3.2 19 19 SW 10 17 29.87 1012 10 16 N/A
5:35 pm 17:35 Sunny 85 29.3 38 3.2 19 19 SW 14 22 29.87 1012 10 16 N/A
5:55 pm 17:55 Sunny 85 29.3 36 2.4 18 18 SW 13 20 29.86 1011 10 16 N/A
6:15 pm 18:15 Sunny 84 29.1 37 2.9 19 19 SW 17 28 29.86 1011 10 16 N/A
6:35 pm 18:35 Sunny 84 29 37 2.7 18 18 SSW 18 30 29.85 1011 10 16 N/A
6:55 pm 18:55 Sunny 83 28.5 37 2.9 19 19 SW 17 28 29.85 1011 10 16 N/A
7:15 pm 19:15 Sunny 82 28 37 2.9 20 20 SSW 16 26 29.86 1011 10 16 N/A
7:35 pm 19:35 Sunny 80 26.7 39 3.7 23 23 SSW 10 17 29.86 1011 10 16 N/A
7:55 pm 19:55 Sunny 79 26.1 37 3 22 22 SSW 12 19 29.86 1011 10 16 N/A
8:15 pm 20:15 Sunny 77 25.1 37 2.6 23 23 SSW 13 20 29.86 1011 10 16 N/A
8:35 pm 20:35 Clear 74 23.6 37 3 26 26 S 13 20 29.87 1012 10 16 N/A
8:55 pm 20:55 Clear 73 22.9 37 2.9 27 27 S 13 20 29.88 1012 10 16 N/A
9:15 pm 21:15 Clear 72 22.1 37 2.6 28 28 S 13 20 29.88 1012 10 16 N/A
9:35 pm 21:35 Clear 71 21.5 37 2.7 29 29 S 16 26 29.89 1012 10 16 N/A
9:55 pm 21:55 Clear 70 21 37 2.8 30 30 S 15 24 29.89 1012 10 16 N/A
10:15 pm 22:15 Clear 69 20.7 37 3 31 31 S 17 28 29.90 1012 10 16 N/A
10:35 pm 22:35 Clear 69 20.6 37 2.7 31 31 S 17 28 29.90 1012 10 16 N/A
10:55 pm 22:55 Clear 68 20 37 3 33 33 SSW 18 30 29.90 1013 10 16 N/A
11:15 pm 23:15 Clear 67 19.6 37 2.9 33 33 SSW 20 31 29.90 1012 10 16 N/A
11:35 pm 23:35 Clear 67 19.6 37 2.7 33 33 SSW 20 31 29.90 1012 10 16 N/A
11:55 pm 23:55 Clear 67 19.5 37 2.5 32 32 SSW 21 33 29.89 1012 10 16 N/A

Powered by AerisWeather